Content
SEND FEEDBACK

Daily
Averages
Monthly
Summary
Thailand

RAYONG, THAILAND


Home > Asia > Thailand
Elevation: 16 feet     Latitude: 12 38N     Longitude: 101 21E

WEATHER
 
SELECT A DAY
Number of Records: 199,252;   Date Range: 7/1/96 - 9/18/14
 
SHARE

PRINT THIS DATA

[ ← Previous Day ]
WEATHER ALMANAC - MAY 9, 2013
[ Next Day → ]
[ °C ]   °F
Weather ElementAverageHighLow
Temperature88.8 °F95 °F (1:00 pm)82.4 °F (6:30 am)
Dewpoint77.1 °F78.8 °F (7:30 am)75.2 °F (1:00 pm)
Humidity68.7 %84 % (6:30 am)53 % (1:00 pm)
Barometer29.76 in29.83 in (9:30 am)29.68 in (4:30 pm)
Wind Speed5.9 mph13.8 mph (12:00 pm)
Weather ElementAverage
Visibility6.2 mi
Wind DirectionS (185.6 °)

Weather ElementTotal
Precipitation---
Cooling Degree Days23.7 (Base 65)
Growing Degree Days38.7 (Base 50)
Averaged from 45 records on May 9, 2013
WEATHER CONDITIONS BREAKOUT
WIND DIRECTION BREAKOUT
WEATHER BY HOUR - MAY 9, 2013
[ °C ]   °F
Local TimeTemperatureDewpointHumidityBarometerVisibilityWind DirectionWind SpeedGust SpeedPrecipitationEventsConditions
12:30 AM86.0 °F77.0 °F74 %29.77 in6.2 miSSW (210°)4.6 mphMostly Cloudy
1:00 AM86.0 °F77.0 °F74 %29.77 in6.2 miSSW (210°)3.5 mphMostly Cloudy
1:30 AM84.2 °F77.0 °F79 %29.77 in6.2 miSSW (200°)4.6 mphMostly Cloudy
2:00 AM84.2 °F77.0 °F79 %29.74 in6.2 miSouth (190°)6.9 mphScattered Clouds
2:30 AM84.2 °F77.0 °F79 %29.74 in6.2 miSouth (190°)6.9 mphScattered Clouds
4:00 AM84.2 °F77.0 °F79 %29.74 in6.2 miSouth (180°)6.9 mphMostly Cloudy
4:30 AM84.2 °F77.0 °F79 %29.74 in6.2 miSSW (200°)4.6 mphMostly Cloudy
5:00 AM84.2 °F77.0 °F79 %29.74 in6.2 miSSW (200°)6.9 mphMostly Cloudy
5:30 AM84.2 °F77.0 °F79 %29.74 in6.2 miCalmMostly Cloudy
6:00 AM84.2 °F77.0 °F79 %29.74 in6.2 miCalmMostly Cloudy
6:30 AM82.4 °F77.0 °F84 %29.77 in6.2 miCalmMostly Cloudy
7:00 AM84.2 °F77.0 °F79 %29.77 in6.2 miCalmMostly Cloudy
7:30 AM86.0 °F78.8 °F79 %29.80 in6.2 miCalmMostly Cloudy
8:00 AM89.6 °F77.0 °F66 %29.80 in6.2 miCalmMostly Cloudy
8:30 AM91.4 °F77.0 °F63 %29.80 in6.2 miSW (220°)6.9 mphMostly Cloudy
9:00 AM91.4 °F77.0 °F63 %29.80 in6.2 miWSW (240°)6.9 mphMostly Cloudy
9:30 AM91.4 °F78.8 °F66 %29.83 in6.2 miSW (230°)9.2 mphMostly Cloudy
10:00 AM91.4 °F77.0 °F63 %29.83 in6.2 miSW (230°)9.2 mphMostly Cloudy
10:30 AM93.2 °F78.8 °F63 %29.83 in6.2 miSSW (200°)6.9 mphMostly Cloudy
11:00 AM93.2 °F78.8 °F63 %29.83 in6.2 miSW (220°)6.9 mphMostly Cloudy
11:30 AM93.2 °F78.8 °F63 %29.80 in6.2 miSW (220°)11.5 mphMostly Cloudy
12:00 PM93.2 °F78.8 °F63 %29.80 in6.2 miSW (230°)13.8 mphMostly Cloudy
12:30 PM93.2 °F77.0 °F59 %29.80 in6.2 miWSW (240°)13.8 mphMostly Cloudy
1:00 PM95.0 °F75.2 °F53 %29.77 in6.2 miWSW (240°)11.5 mphMostly Cloudy
1:30 PM95.0 °F75.2 °F53 %29.77 in6.2 miSW (230°)8.1 mphMostly Cloudy
2:00 PM93.2 °F78.8 °F63 %29.74 in6.2 miSW (230°)11.5 mphMostly Cloudy
2:30 PM93.2 °F75.2 °F56 %29.77 in6.2 miSW (230°)9.2 mphMostly Cloudy
3:00 PM91.4 °F75.2 °F59 %29.71 in6.2 miSSW (210°)6.9 mphMostly Cloudy
3:30 PM91.4 °F77.0 °F63 %29.71 in6.2 miSW (220°)6.9 mphMostly Cloudy
4:00 PM91.4 °F77.0 °F63 %29.71 in6.2 miSSW (210°)6.9 mphMostly Cloudy
4:30 PM91.4 °F77.0 °F63 %29.68 in6.2 miSW (220°)6.9 mphMostly Cloudy
5:00 PM89.6 °F77.0 °F66 %29.68 in6.2 miSW (220°)9.2 mphMostly Cloudy
5:30 PM89.6 °F77.0 °F66 %29.68 in6.2 miSSW (210°)6.9 mphMostly Cloudy
6:00 PM89.6 °F77.0 °F66 %29.71 in6.2 miWSW (240°)4.6 mphMostly Cloudy
6:30 PM87.8 °F77.0 °F70 %29.68 in6.2 miSW (220°)4.6 mphMostly Cloudy
7:00 PM89.6 °F77.0 °F66 %29.71 in6.2 miSSW (210°)4.6 mphMostly Cloudy
7:30 PM87.8 °F77.0 °F70 %29.71 in6.2 miSSW (210°)4.6 mphMostly Cloudy
8:00 PM87.8 °F77.0 °F70 %29.71 in6.2 miSSW (200°)3.5 mphMostly Cloudy
8:30 PM87.8 °F77.0 °F70 %29.74 in6.2 miSouth (180°)4.6 mphMostly Cloudy
9:00 PM87.8 °F77.0 °F70 %29.77 in6.2 miSSW (210°)4.6 mphMostly Cloudy
9:30 PM87.8 °F77.0 °F70 %29.77 in6.2 miSSW (200°)4.6 mphMostly Cloudy
10:00 PM87.8 °F77.0 °F70 %29.80 in6.2 miSW (220°)4.6 mphMostly Cloudy
10:30 PM87.8 °F77.0 °F70 %29.80 in6.2 miSSW (210°)4.6 mphMostly Cloudy
11:00 PM87.8 °F77.0 °F70 %29.80 in6.2 miSSW (210°)4.6 mphMostly Cloudy
11:30 PM87.8 °F77.0 °F70 %29.80 in6.2 miSSW (210°)3.5 mphMostly Cloudy
Hourly data recorded from VTBU, located miles away from Rayong, Thailand







STORIES FROM OUR PARTNERS